{"data":{"norad_id":38358,"intl_designator":"2012-031A","name":"NUSTAR","alt_names":[],"object_type":"PAYLOAD","status":"ACTIVE","operator":null,"country":"US","launch_date":"2012-06-13","launch_site_code":"AFETR","launch_vehicle":null,"mission":null,"orbit_class":"UNKNOWN","rcs_meters":1.2619,"size_class":null,"mass_kg":null,"dimensions":null,"purposes":["science"],"wikipedia_slug":null,"has_3d_model":false,"image_url":null,"decayed_at":null,"tle_current":{"epoch":"2026-05-25T06:00:02.000160Z","epoch_age_seconds":50763,"freshness":"FRESH","line1":"1 38358U 12031A   26145.25002315  .00008763  00000+0  49087-3 0  9994","line2":"2 38358   6.0247 206.1716 0007269 131.1623 318.8832 15.08547520  1306","mean_motion":15.0854752,"eccentricity":0.0007269,"inclination_deg":6.0247,"raan_deg":206.1716,"arg_perigee_deg":131.1623,"mean_anomaly_deg":318.8832,"bstar":0.00049087,"rev_number":130,"period_min":95.456058288439,"perigee_km":535.60827054943,"apogee_km":545.66678495787,"semimajor_km":6918.7745277536,"source":"CELESTRAK","updated_at":"2026-05-25T13:38:24.640796Z"}}}